Date,TemperatureHighF,TemperatureAvgF,TemperatureLowF,DewpointHighF,DewpointAvgF,DewpointLowF,HumidityHigh,HumidityAvg,HumidityLow,PressureMaxIn,PressureMinIn,WindSpeedMaxMPH,WindSpeedAvgMPH,GustSpeedMaxMPH,PrecipitationSumIn
2013-1-1,50,47,44,50,47,44,100,100,100,30.08,29.92,6,1,16,0.23
2013-1-2,48,44,39,48,44,39,100,100,100,30.17,29.91,1,0,5,0.27
2013-1-3,44,40,30,44,40,30,100,100,100,30.25,30.15,0,0,6,0.00
2013-1-4,51,37,26,51,37,26,100,100,100,30.32,30.19,3,1,14,0.00
2013-1-5,52,37,26,52,37,26,100,100,100,30.39,30.25,3,0,8,0.00
2013-1-6,50,42,35,50,42,35,100,100,100,30.25,30.05,3,0,8,0.01
2013-1-7,55,38,29,55,38,29,100,100,100,30.43,30.17,0,0,7,0.01
2013-1-8,54,39,28,54,39,28,100,100,100,30.47,30.37,0,0,3,0.00
2013-1-9,50,41,36,50,41,36,100,100,100,30.39,30.36,0,0,3,0.00
2013-1-10,65,52,43,65,52,43,100,100,100,30.52,30.40,0,0,8,0.00
2013-1-11,51,47,43,51,47,43,100,100,100,30.42,30.14,0,0,7,0.18
2013-1-12,52,50,50,52,50,50,100,100,100,30.14,30.10,0,0,5,0.00
2013-1-13,74,69,62,74,69,62,100,100,100,30.09,30.01,7,2,17,0.00
2013-1-14,68,64,61,68,64,61,100,100,100,30.12,30.04,5,1,13,0.07
2013-1-15,56,46,44,56,46,44,100,100,100,30.22,30.07,0,0,12,0.02
2013-1-16,49,46,43,49,46,43,100,100,100,30.06,29.96,0,0,6,0.17
2013-1-17,50,46,33,50,46,33,100,100,100,30.05,29.89,1,0,14,1.17
2013-1-18,46,36,28,46,36,28,100,100,100,30.53,30.14,2,0,9,0.42
2013-1-19,55,36,24,55,36,24,100,100,100,30.50,30.17,2,0,9,0.00
2013-1-20,65,48,37,65,48,37,100,100,100,30.14,29.96,6,2,18,0.00
2013-1-21,61,43,28,61,43,28,100,100,100,30.08,29.85,5,1,16,0.00
2013-1-22,49,38,24,49,38,24,100,100,100,30.29,29.85,3,0,13,0.00
2013-1-23,41,27,16,41,27,16,100,100,100,30.40,30.09,3,1,13,0.00
2013-1-24,37,32,22,37,32,22,100,100,100,30.53,29.96,5,1,14,0.00
2013-1-25,28,24,20,28,24,20,100,100,100,30.54,30.14,1,0,7,0.03
2013-1-26,37,30,25,37,30,25,100,100,100,30.41,30.11,1,0,6,0.10
2013-1-27,43,30,22,43,30,22,100,100,100,30.63,30.43,1,0,7,0.03
2013-1-28,51,42,29,51,42,29,100,100,100,30.52,30.21,7,1,14,0.03
2013-1-29,74,59,48,74,59,48,100,100,100,30.22,30.03,5,2,13,0.00
2013-1-30,71,66,60,71,66,59,100,100,100,30.03,29.37,8,5,29,0.03
2013-1-31,51,46,39,51,46,39,100,100,100,29.98,29.70,12,4,25,0.19
2013-2-1,39,31,26,39,31,26,100,100,100,30.39,29.94,6,2,17,0.00
2013-2-2,44,32,18,44,32,18,100,100,100,30.42,30.04,7,1,27,0.00
2013-2-3,50,42,34,50,42,34,100,100,100,30.02,29.84,5,2,16,0.00
2013-2-4,50,42,27,50,42,27,100,100,100,30.15,30.00,3,1,10,0.00
2013-2-5,61,46,37,61,46,37,100,100,100,29.99,29.86,5,2,16,0.00
2013-2-6,64,44,30,64,44,30,100,100,100,30.23,29.95,2,0,10,0.00
2013-2-7,49,41,35,49,41,35,100,100,100,30.34,30.07,1,0,8,0.16
2013-2-8,54,46,39,54,46,39,100,100,100,30.01,29.80,3,1,20,0.62
2013-2-9,40,34,30,40,34,30,100,100,100,30.18,30.03,1,0,13,0.00
2013-2-10,54,47,37,54,47,37,100,100,100,30.50,30.25,1,0,10,0.00
2013-2-11,62,54,44,62,54,44,100,100,100,30.20,29.90,8,2,20,0.06
2013-2-12,62,53,44,62,53,44,100,100,100,30.06,29.90,3,1,15,0.00
2013-2-13,48,46,44,47,46,44,100,100,100,29.93,29.63,3,0,14,0.37
2013-2-14,53,42,31,53,42,31,100,100,100,30.06,29.82,3,0,12,0.01
2013-2-15,63,43,28,63,43,28,100,100,100,30.10,29.91,3,0,12,0.00
2013-2-16,45,37,33,45,37,33,100,100,100,29.95,29.83,3,0,10,0.39
2013-2-17,38,30,24,38,30,24,100,100,100,30.27,29.92,6,2,22,0.06
2013-2-18,54,33,16,54,33,16,100,100,100,30.44,30.26,5,1,12,0.00
2013-2-19,52,43,34,52,43,34,100,100,100,30.25,29.85,7,2,22,0.10
2013-2-20,54,40,29,54,40,29,100,100,100,30.13,29.94,7,1,17,0.00
2013-2-21,55,39,24,55,39,24,100,100,100,30.24,30.11,2,0,12,0.00
2013-2-22,41,37,33,41,37,33,100,100,100,30.34,30.18,1,0,7,0.35
2013-2-23,43,40,36,43,40,36,100,100,100,30.14,29.81,1,0,7,0.75
2013-2-24,62,48,38,62,48,38,100,100,100,30.00,29.78,2,0,12,0.03
2013-2-25,42,36,32,42,36,32,100,100,100,30.22,30.02,0,0,9,0.00
2013-2-26,56,43,33,56,43,33,100,100,100,30.15,29.55,3,0,14,0.85
2013-2-27,60,49,42,60,49,42,100,100,100,29.76,29.60,3,2,16,0.00
2013-2-28,47,42,32,47,42,32,100,100,100,29.84,29.67,5,1,16,0.00
2013-3-1,50,39,31,50,39,31,100,100,100,29.89,29.83,3,0,12,0.00
2013-3-2,50,41,29,50,41,29,100,100,100,29.91,29.80,2,0,10,0.00
2013-3-3,48,39,31,48,35,-12,100,92,14,29.97,29.83,5,1,13,0.00
2013-3-4,51,36,24,51,36,24,100,100,100,30.11,29.97,5,1,17,0.00
2013-3-5,50,41,33,50,41,33,100,100,100,30.08,29.61,2,0,12,0.47
2013-3-6,45,41,36,45,41,36,100,100,100,30.01,29.50,7,2,25,0.03
2013-3-7,50,41,31,50,41,31,100,100,100,30.22,30.01,3,1,18,0.00
2013-3-8,55,42,28,55,42,28,100,100,100,30.27,30.13,6,1,20,0.00
2013-3-9,63,45,30,63,45,30,100,100,93,30.33,30.22,5,0,9,0.00
2013-3-10,61,46,33,36,24,6,100,50,20,30.29,30.20,0,0,7,0.00
2013-3-11,70,54,38,68,32,-41,100,68,1,30.22,29.92,6,1,17,0.00
2013-3-12,69,61,50,64,30,-24,100,54,2,29.91,29.72,5,1,25,0.90
2013-3-13,58,46,33,58,39,2,100,83,15,30.09,29.91,8,1,24,0.00
2013-3-14,54,42,28,54,42,28,100,99,77,30.23,30.09,3,1,15,0.00
2013-3-15,63,45,27,63,45,27,100,100,100,30.18,29.88,7,2,20,0.00
2013-3-16,77,62,52,73,49,7,100,74,11,29.86,29.60,7,3,24,0.00
2013-3-17,61,52,42,61,46,-7,100,90,6,30.15,29.78,2,0,9,0.00
2013-3-18,43,40,38,43,40,38,100,100,100,30.19,29.91,2,0,9,0.18
2013-3-19,67,51,40,62,42,29,100,78,37,29.98,29.82,7,1,20,0.01
2013-3-20,56,46,36,56,35,1,100,73,22,30.10,29.80,3,1,15,0.00
2013-3-21,47,40,33,47,40,33,100,100,100,29.95,29.72,5,1,16,0.00
2013-3-22,52,39,23,52,31,-1,100,82,21,30.09,29.95,7,1,13,0.00
2013-3-23,56,42,33,56,34,-16,100,84,11,30.05,29.93,1,0,6,0.00
2013-3-24,40,38,36,40,38,36,100,100,100,29.83,29.57,1,0,10,0.82
2013-3-25,49,40,35,49,40,35,100,100,100,29.78,29.56,7,2,25,0.01
2013-3-26,50,42,33,50,42,33,100,100,100,30.08,29.80,5,1,13,0.00
2013-3-27,54,41,31,54,41,31,100,100,100,30.20,30.09,5,1,18,0.00
2013-3-28,57,42,30,57,38,12,100,91,27,30.26,30.13,3,0,15,0.00
2013-3-29,60,44,27,60,37,7,100,85,14,30.33,30.16,2,0,14,0.00
2013-3-30,68,51,36,66,42,10,100,81,17,30.24,30.06,5,0,8,0.00
2013-3-31,68,57,48,67,48,-4,100,86,6,30.07,29.77,5,1,21,0.59
2013-4-1,72,59,54,59,35,-33,100,56,2,29.90,29.77,5,1,20,0.05
2013-4-2,61,47,35,61,43,12,100,91,21,30.14,29.95,2,0,13,0.00
2013-4-3,60,46,35,60,46,35,100,100,100,30.27,30.12,1,0,10,0.00
2013-4-4,50,42,38,50,42,38,100,100,100,30.35,29.95,1,0,10,0.71
2013-4-5,62,48,40,62,48,40,100,100,100,29.99,29.86,2,0,7,0.09
2013-4-6,65,50,39,65,50,39,100,100,100,30.25,29.99,1,0,12,0.00
2013-4-7,72,55,35,72,51,35,100,90,30,30.27,30.08,7,1,16,0.00
2013-4-8,78,66,56,74,44,-4,100,60,6,30.14,30.01,6,1,22,0.00
2013-4-9,85,72,60,64,40,-26,100,47,2,30.14,30.01,5,2,18,0.00
2013-4-10,87,75,64,70,46,6,100,50,7,30.05,29.89,6,2,17,0.00
2013-4-11,81,73,64,73,36,-33,100,46,1,29.95,29.75,7,2,20,0.00
2013-4-12,80,71,63,73,41,-36,100,53,1,29.76,29.56,8,3,25,1.23
2013-4-13,74,62,49,63,21,-45,100,34,1,29.97,29.72,2,0,12,0.00
2013-4-14,82,63,44,67,47,28,100,64,23,30.07,29.97,2,0,12,0.00
2013-4-15,73,65,58,68,42,-14,100,65,4,30.18,29.99,3,0,15,0.04
2013-4-16,76,65,57,67,47,-8,100,72,4,30.28,30.16,2,0,6,0.00
2013-4-17,83,69,57,71,37,-43,100,56,1,30.19,30.07,5,1,12,0.00
2013-4-18,80,70,60,72,40,-35,100,55,1,30.16,30.00,3,1,16,0.00
2013-4-19,82,71,66,74,48,-31,100,68,1,30.01,29.67,8,3,30,0.52
2013-4-20,65,56,44,61,39,-43,100,74,1,30.24,29.77,7,1,22,0.10
2013-4-21,63,50,40,63,50,40,100,100,100,30.47,30.24,2,0,12,0.00
2013-4-22,63,49,36,63,49,36,100,100,100,30.46,30.25,2,0,12,0.00
2013-4-23,67,54,48,66,53,26,100,97,21,30.25,30.10,1,0,10,0.04
2013-4-24,76,62,46,72,48,14,100,74,12,30.12,29.93,7,2,21,0.00
2013-4-25,71,62,50,71,58,36,100,91,29,30.25,29.97,5,0,12,0.00
2013-4-26,73,58,45,70,50,32,100,84,28,30.39,30.25,1,0,9,0.00
2013-4-27,74,61,50,70,48,-1,100,74,7,30.35,30.23,2,0,8,0.00
2013-4-28,61,58,55,61,58,55,100,100,100,30.23,30.09,0,0,9,0.36
2013-4-29,69,61,55,69,47,-39,100,80,1,30.09,29.94,0,0,4,1.00
2013-4-30,66,60,56,66,37,-1,100,55,8,30.14,29.98,0,0,4,0.02
2013-5-1,61,58,56,61,34,-43,100,69,1,30.29,30.13,1,0,8,0.01
2013-5-2,63,58,53,63,37,-43,100,75,1,30.31,30.23,0,0,8,0.00
2013-5-3,69,56,47,59,34,-10,100,65,6,30.25,30.14,2,0,12,0.01
2013-5-4,63,55,49,63,55,49,100,100,100,30.19,30.06,1,0,10,0.00
2013-5-5,59,55,50,59,55,50,100,100,100,30.08,29.97,2,0,12,0.00
2013-5-6,66,60,56,64,57,-5,100,94,6,29.98,29.80,1,0,16,2.07
2013-5-7,67,58,50,67,57,50,100,98,87,29.92,29.82,1,0,10,0.20
2013-5-8,70,60,51,70,59,51,100,99,88,29.98,29.89,2,0,13,0.18
2013-5-9,78,65,54,62,58,53,99,79,49,30.02,29.94,5,0,12,0.01
2013-5-10,85,75,58,63,60,56,94,63,43,30.02,29.90,6,1,15,0.00
2013-5-11,81,72,66,66,62,58,94,72,51,29.91,29.75,6,2,20,0.12
2013-5-12,73,66,54,65,52,38,95,66,33,29.98,29.75,5,1,13,0.01
2013-5-13,51,48,44,46,41,36,90,75,58,30.16,29.99,0,0,3,0.00
2013-5-14,71,55,39,54,46,39,100,75,39,30.23,30.05,3,0,12,0.00
2013-5-15,86,69,51,72,62,49,99,78,60,30.05,29.85,5,2,15,0.01
2013-5-16,85,75,66,77,70,65,100,85,69,29.93,29.85,5,1,15,0.00
2013-5-17,88,75,61,78,70,61,100,87,55,30.04,29.93,1,0,7,0.00
2013-5-18,78,70,62,77,70,62,100,100,95,30.11,30.02,2,0,12,0.32
2013-5-19,75,69,64,72,68,64,100,97,76,30.10,30.02,3,0,14,1.74
2013-5-20,75,70,67,75,70,67,100,100,100,30.08,29.99,3,0,13,0.34
2013-5-21,84,73,68,84,73,68,100,100,100,30.01,29.90,3,1,16,0.00
2013-5-22,84,75,69,84,75,69,100,100,100,29.99,29.86,5,1,15,0.00
2013-5-23,82,74,69,82,74,69,100,100,100,29.91,29.77,2,0,10,0.03
2013-5-24,71,65,53,71,65,53,100,100,100,30.13,29.77,5,1,21,0.06
2013-5-25,73,57,42,73,57,42,100,100,100,30.23,30.09,2,0,14,0.00
2013-5-26,74,59,47,74,59,47,100,100,100,30.24,30.13,1,0,9,0.00
2013-5-27,81,65,49,81,65,49,100,100,100,30.25,30.12,2,0,12,0.00
2013-5-28,85,72,61,85,73,61,100,100,100,30.22,30.10,6,1,14,0.00
2013-5-29,85,74,63,85,74,63,100,100,100,30.19,30.12,7,1,13,0.00
2013-5-30,88,75,63,88,75,63,100,100,100,30.23,30.13,5,1,9,0.00
2013-5-31,88,77,66,88,77,66,100,100,100,30.18,30.06,5,1,12,0.00
2013-6-1,88,78,68,88,78,68,100,100,100,30.10,29.97,5,1,15,0.00
2013-6-2,86,77,69,86,77,69,100,100,100,30.01,29.86,7,2,17,0.00
2013-6-3,82,74,66,82,74,66,100,100,100,29.91,29.78,5,0,21,0.52
2013-6-4,78,70,65,78,70,65,100,100,100,30.06,29.89,0,0,4,0.01
2013-6-5,82,69,62,82,69,62,100,100,100,30.10,30.00,1,0,7,0.00
2013-6-6,76,70,65,76,70,65,100,100,100,30.01,29.79,1,0,9,0.65
2013-6-7,75,71,69,75,71,69,100,100,100,29.81,29.46,2,0,9,4.02
2013-6-8,82,73,68,82,73,68,100,100,100,30.04,29.77,2,0,12,0.04
2013-6-9,86,75,65,86,75,65,100,100,100,30.12,30.01,2,0,8,0.03
2013-6-10,82,75,71,82,75,71,100,100,100,30.05,29.85,6,2,20,0.57
2013-6-11,84,76,70,84,76,70,100,100,100,29.91,29.84,3,1,16,0.00
2013-6-12,90,77,65,90,77,65,100,100,100,29.92,29.82,3,0,13,0.00
2013-6-13,93,83,68,93,83,68,100,100,100,29.81,29.55,7,2,20,0.00
2013-6-14,79,70,59,79,70,59,100,100,100,29.89,29.67,2,0,10,0.00
2013-6-15,84,78,67,84,78,67,100,100,100,30.02,30.00,1,0,10,0.00
2013-6-16,86,75,65,86,75,65,100,100,100,30.08,29.95,5,2,18,0.00
2013-6-17,86,77,72,86,77,72,100,100,100,29.98,29.88,3,1,12,0.02
2013-6-18,83,75,70,83,75,70,100,100,100,29.92,29.70,3,1,21,0.55
2013-6-19,80,72,64,80,72,64,100,100,100,30.07,29.83,0,0,7,0.00
2013-6-20,82,72,63,82,72,63,100,100,100,30.20,30.08,0,0,6,0.01
2013-6-21,83,69,56,83,69,56,100,100,100,30.22,30.15,0,0,7,0.00
2013-6-22,83,74,68,83,74,68,100,100,100,30.17,30.08,2,0,6,0.00
2013-6-23,85,76,67,85,76,67,100,100,100,30.17,30.08,1,0,10,0.04
2013-6-24,87,79,72,87,79,72,100,100,100,30.16,30.04,3,1,12,0.00
2013-6-25,90,78,71,90,78,71,100,100,100,30.07,29.96,6,1,12,0.00
2013-6-26,90,79,70,90,79,70,100,100,100,29.99,29.84,3,1,15,0.42
2013-6-27,88,82,72,88,82,72,100,100,100,29.80,29.67,5,2,15,0.01
2013-6-28,91,79,72,91,79,72,100,100,98,29.70,29.52,3,1,13,0.35
2013-6-29,84,77,70,84,77,70,100,100,100,29.68,29.58,1,0,25,0.32
2013-6-30,85,76,71,85,76,71,100,100,100,29.81,29.67,1,0,18,1.12
2013-7-1,81,75,70,81,75,70,100,100,100,29.94,29.80,2,0,15,1.00
2013-7-2,76,74,72,76,74,72,100,100,100,30.14,29.95,2,0,12,0.37
2013-7-3,85,77,73,85,77,73,100,100,100,30.19,30.11,5,0,15,0.20
2013-7-4,88,79,72,88,79,72,100,100,100,30.23,30.13,3,0,10,0.00
2013-7-5,90,80,72,90,80,72,100,100,100,30.23,30.11,2,0,9,0.00
2013-7-6,88,79,73,88,79,73,100,100,100,30.20,30.07,2,0,9,0.03
2013-7-7,88,78,70,88,78,70,100,100,100,30.14,30.02,5,1,12,0.00
2013-7-8,88,78,73,88,78,73,100,100,100,30.12,30.05,1,0,10,0.15
2013-7-9,89,78,72,89,78,72,100,100,100,30.11,30.02,2,0,12,0.00
2013-7-10,87,79,72,87,79,72,100,100,100,30.06,29.91,6,2,20,0.19
2013-7-11,82,75,73,82,75,73,100,100,100,29.94,29.84,3,0,10,0.17
2013-7-12,76,73,71,76,73,71,100,100,100,29.97,29.83,0,0,6,0.03
2013-7-13,80,74,70,80,74,70,100,100,100,30.13,29.97,0,0,7,0.49
2013-7-14,87,78,70,84,55,-4,100,71,3,30.25,30.14,0,0,9,0.01
2013-7-15,89,78,68,83,38,-21,100,39,2,30.27,30.20,0,0,5,0.00
2013-7-16,93,81,69,87,46,-14,100,47,3,30.23,30.13,2,0,6,0.00
2013-7-17,92,83,74,86,49,-11,100,53,3,30.17,30.06,0,0,4,0.00
2013-7-18,94,83,74,87,47,-11,100,53,2,30.09,29.99,1,0,7,0.00
2013-7-19,87,78,76,87,56,0,100,68,5,30.04,29.94,1,0,10,0.00
2013-7-20,89,80,75,84,64,-3,100,81,3,29.98,29.87,5,1,14,0.00
2013-7-21,89,79,74,86,70,2,100,89,4,29.94,29.86,3,0,12,0.01
2013-7-22,88,79,72,85,57,-3,100,73,3,29.90,29.77,3,0,12,0.01
2013-7-23,89,80,75,83,60,1,100,72,4,29.79,29.67,5,1,13,0.00
2013-7-24,92,81,71,84,57,-21,100,65,2,29.78,29.68,0,0,6,0.00
2013-7-25,80,74,68,79,62,-30,100,88,1,29.98,29.77,1,0,6,0.00
2013-7-26,86,73,62,74,29,-38,100,35,1,30.06,29.98,0,0,4,0.00
2013-7-27,86,74,66,77,33,-17,100,43,2,30.01,29.90,2,0,10,0.12
2013-7-28,87,77,70,82,36,-33,100,39,1,29.95,29.87,3,1,9,0.01
2013-7-29,86,76,69,79,41,-8,100,46,4,30.10,29.94,1,0,17,0.17
2013-7-30,87,75,62,79,52,-15,100,65,2,30.18,30.09,1,0,6,0.00
2013-7-31,83,75,72,81,58,-28,100,81,1,30.10,29.96,0,0,7,0.02
2013-8-1,82,74,70,82,59,-34,100,78,1,29.97,29.81,6,0,23,0.20
2013-8-2,88,76,67,81,54,-14,100,66,2,29.96,29.85,1,0,8,0.04
2013-8-3,88,77,71,85,48,-26,100,59,1,29.96,29.86,3,0,12,0.61
2013-8-4,83,74,66,79,42,-20,100,47,2,29.98,29.84,0,0,5,0.00
2013-8-5,83,73,62,76,30,-30,100,36,1,30.05,29.96,1,0,7,0.00
2013-8-6,83,75,68,78,37,-34,100,53,1,30.01,29.95,5,1,12,0.14
2013-8-7,87,81,73,79,43,-28,100,47,1,30.05,29.97,5,1,12,0.14
2013-8-8,89,79,70,84,50,-34,100,62,1,30.02,29.95,1,0,12,0.00
2013-8-9,90,81,74,83,42,-32,100,55,1,30.00,29.92,5,2,17,0.00
2013-8-10,92,80,74,87,61,-10,100,77,2,30.05,29.95,5,0,29,0.35
2013-8-11,92,80,72,92,80,72,100,100,100,30.06,29.96,1,0,6,0.00
2013-8-12,92,81,73,92,81,73,100,100,100,30.00,29.88,1,0,7,0.00
2013-8-13,87,77,70,85,74,70,100,91,69,29.93,29.73,3,0,20,1.43
2013-8-14,75,71,60,73,66,58,98,85,68,30.05,29.77,0,0,6,0.00
2013-8-15,77,67,59,63,60,57,94,80,54,30.12,30.04,1,0,5,0.01
2013-8-16,71,64,58,71,64,57,100,98,93,30.13,30.06,0,0,4,0.00
2013-8-17,73,67,62,71,66,62,100,96,90,30.13,30.08,0,0,6,0.22
2013-8-18,80,72,68,71,69,66,98,89,73,30.16,30.07,3,0,12,0.05
2013-8-19,74,71,67,73,70,66,98,95,88,30.12,30.05,0,0,5,0.58
2013-8-20,81,74,68,74,71,67,99,91,77,30.14,30.06,0,0,3,0.00
2013-8-21,86,76,71,79,73,70,100,92,76,30.17,30.06,0,0,6,0.02
2013-8-22,89,78,69,75,72,69,99,83,56,30.09,29.94,3,0,8,0.01
2013-8-23,88,77,69,74,71,66,98,84,62,30.01,29.88,1,0,8,0.00
2013-8-24,83,72,64,66,63,60,92,74,47,30.24,30.02,1,0,7,0.00
2013-8-25,80,68,59,65,60,57,97,78,47,30.35,30.25,0,0,9,0.00
2013-8-26,83,67,54,65,59,52,100,78,41,30.28,30.08,0,0,7,0.00
2013-8-27,88,74,62,75,66,58,92,76,54,30.08,29.91,1,0,7,0.00
2013-8-28,82,76,69,76,72,68,98,89,77,29.94,29.83,2,0,8,0.00
2013-8-29,86,78,73,74,72,70,92,84,66,29.97,29.78,3,0,10,0.00
2013-8-30,88,75,65,69,67,64,97,79,48,30.02,29.89,1,0,5,0.00
2013-8-31,89,76,66,72,69,64,98,80,54,29.92,29.82,3,0,14,0.00
2013-9-1,89,78,71,78,73,69,97,84,63,29.85,29.73,3,0,12,0.43
2013-9-2,81,81,81,75,75,75,82,82,82,29.75,29.75,0,0,0,0.81
2013-9-3,85,80,73,76,74,71,99,83,70,29.87,29.75,1,0,7,0.19
2013-9-4,85,75,68,72,69,66,96,83,60,30.04,29.89,2,0,6,0.00
2013-9-5,88,73,65,69,65,59,100,78,38,30.05,29.98,2,0,8,0.00
2013-9-6,83,70,61,66,62,58,95,77,47,30.13,30.03,0,0,5,0.00
2013-9-7,83,69,58,66,62,56,98,79,49,30.09,29.94,0,0,6,0.00
2013-9-8,88,73,62,71,64,60,95,78,41,29.93,29.86,0,0,6,0.00
2013-9-9,88,74,65,71,68,63,98,81,54,30.10,29.94,0,0,8,0.00
2013-9-10,91,77,66,72,68,65,99,78,49,30.19,30.09,1,0,9,0.00
2013-9-11,92,76,66,71,68,64,96,79,46,30.16,30.03,3,0,8,0.00
2013-9-12,71,71,70,68,67,67,90,88,87,30.03,29.99,0,0,4,0.00
2013-9-13,86,77,64,66,61,56,83,60,46,29.84,29.70,1,0,12,0.00
2013-9-14,78,66,57,56,52,50,88,64,38,30.09,29.84,0,0,7,0.00
2013-9-15,81,65,51,60,56,50,99,76,44,30.20,30.08,1,0,5,0.00
2013-9-16,87,73,64,70,64,60,94,75,43,30.14,29.99,3,0,8,0.08
2013-9-17,79,66,57,59,54,50,89,68,38,30.28,30.15,0,0,8,0.00
2013-9-18,75,60,49,56,51,48,96,76,40,30.28,30.14,0,0,7,0.00
2013-9-19,77,64,53,62,56,50,94,78,52,30.16,30.06,1,0,5,0.00
2013-9-20,71,67,63,65,63,59,93,86,79,30.05,29.93,1,0,8,0.14
2013-9-21,76,70,66,69,66,64,92,87,77,29.93,29.69,1,0,9,0.10
2013-9-22,78,68,58,65,61,56,94,80,55,29.84,29.67,0,0,7,0.50
2013-9-23,73,61,52,56,54,51,97,79,50,30.03,29.86,1,0,7,0.00
2013-9-24,74,61,51,60,55,50,97,83,56,30.07,29.91,0,0,6,0.00
2013-9-25,75,63,51,62,58,50,99,85,59,29.92,29.83,0,0,4,0.00
2013-9-26,77,65,56,61,57,54,97,79,46,30.00,29.83,0,0,5,0.00
2013-9-27,75,62,52,62,55,51,98,82,56,30.14,30.00,0,0,6,0.00
2013-9-28,74,61,52,58,54,50,98,79,51,30.23,30.12,0,0,9,0.01
2013-9-29,75,61,51,58,54,50,99,80,46,30.14,30.00,1,0,8,0.00
2013-9-30,78,60,51,61,54,50,98,83,47,30.07,29.96,1,0,5,0.00
2013-10-1,83,63,50,64,56,49,98,80,46,30.09,29.98,1,0,7,0.00
2013-10-2,86,68,56,64,59,54,98,77,41,30.09,30.00,1,0,8,0.00
2013-10-3,85,76,62,67,64,58,97,70,45,30.08,30.01,0,0,8,0.00
2013-10-4,87,73,62,68,64,61,98,76,45,30.09,30.00,3,0,9,0.00
2013-10-5,90,73,60,72,64,59,97,78,44,30.07,29.98,1,0,6,0.00
2013-10-6,85,73,62,70,66,60,98,82,60,30.03,29.90,3,0,12,0.00
2013-10-7,74,71,63,72,68,61,96,93,88,29.95,29.81,6,1,15,0.03
2013-10-8,63,59,57,61,52,48,94,76,69,30.16,29.94,0,0,10,0.00
2013-10-9,62,58,55,55,53,49,95,82,75,30.15,30.04,2,0,13,0.05
2013-10-10,55,54,54,53,53,53,95,95,94,30.04,29.99,1,0,9,0.00
2013-10-13,63,62,62,62,62,62,97,97,97,30.16,30.16,0,0,7,0.00
2013-10-14,65,62,57,62,60,56,98,95,88,30.20,30.15,0,0,6,0.03
2013-10-15,71,61,52,62,58,52,99,89,70,30.17,30.02,1,0,7,0.00
2013-10-16,70,65,61,63,62,59,96,89,75,30.02,29.92,1,0,5,0.00
2013-10-17,75,67,60,65,62,59,97,86,68,29.93,29.80,5,1,13,0.00
2013-10-18,69,63,54,65,55,48,93,76,54,30.00,29.83,0,0,9,0.00
2013-10-19,70,63,59,64,59,55,94,89,80,29.94,29.79,2,0,6,0.00
2013-10-20,67,55,43,58,47,41,96,77,43,30.09,29.86,1,0,9,0.01
2013-10-21,70,51,37,54,44,35,98,81,40,30.15,30.00,1,0,6,0.00
2013-10-22,64,57,50,58,53,48,94,88,77,29.97,29.77,1,0,8,0.00
2013-10-23,68,57,46,58,47,34,99,73,41,29.96,29.65,3,1,18,0.01
2013-10-24,61,46,35,39,34,32,88,66,35,30.16,29.96,2,0,13,0.00
2013-10-25,58,46,34,38,33,28,88,63,36,30.34,30.16,2,0,12,0.00
2013-10-26,61,42,28,37,31,25,93,69,35,30.34,30.05,3,0,14,0.00
2013-10-27,68,53,40,45,40,35,90,64,38,30.10,30.01,5,0,10,0.00
2013-10-28,72,54,41,54,47,40,95,80,46,30.23,30.10,1,0,5,0.00
2013-10-29,74,58,48,58,52,47,97,83,52,30.31,30.22,0,0,6,0.00
2013-10-30,71,60,51,60,55,49,97,86,62,30.26,30.13,2,0,9,0.00
2013-10-31,75,64,55,61,57,54,98,78,55,30.16,29.90,6,1,14,0.00
2013-11-1,72,68,64,66,64,62,96,87,76,29.89,29.65,7,3,20,1.20
2013-11-2,71,61,52,60,53,42,98,78,41,29.88,29.65,2,0,12,0.01
2013-11-3,66,50,39,44,40,36,92,73,38,30.34,29.90,1,0,12,0.00
2013-11-4,58,43,33,37,33,31,92,72,37,30.54,30.35,1,0,7,0.00
2013-11-5,59,48,35,49,41,31,87,78,62,30.53,30.40,0,0,8,0.00
2013-11-6,73,56,43,54,49,41,95,81,50,30.40,30.08,1,0,6,0.00
2013-11-7,69,59,45,61,52,32,97,79,53,30.08,29.89,6,0,15,0.07
2013-11-8,60,44,32,32,30,26,87,60,29,30.31,30.08,1,0,12,0.00
2013-11-9,60,43,29,37,31,26,96,67,31,30.37,30.17,3,0,14,0.00
2013-11-10,73,54,41,39,35,29,75,52,26,30.22,30.03,5,1,15,0.00
2013-11-11,63,46,32,33,30,27,86,58,27,30.35,30.13,1,0,7,0.00
2013-11-12,60,43,34,39,32,17,85,66,40,30.41,30.04,2,0,12,0.02
2013-11-13,48,34,26,21,18,14,81,53,27,30.53,30.41,2,0,12,0.00
2013-11-14,60,39,24,26,22,19,87,58,25,30.48,30.33,3,1,15,0.00
2013-11-15,62,47,30,44,36,24,85,67,40,30.35,30.20,1,0,10,0.00
2013-11-16,70,55,49,57,50,44,89,82,62,30.25,30.19,0,0,6,0.00
2013-11-17,70,66,60,66,61,58,96,84,71,30.14,29.86,2,0,14,0.04
2013-11-18,77,66,54,66,52,30,95,65,39,29.92,29.76,6,1,20,0.03
2013-11-19,59,48,39,31,28,26,66,48,30,30.29,29.93,1,0,14,0.00
2013-11-20,56,44,36,36,30,26,79,60,40,30.44,30.30,1,0,10,0.00
2013-11-21,61,50,39,47,41,35,86,74,57,30.50,30.38,0,0,5,0.00
2013-11-22,71,58,45,59,52,42,88,79,67,30.38,30.06,2,1,12,0.02
2013-11-23,62,55,42,60,45,21,95,70,39,30.14,30.01,1,0,8,0.01
2013-11-24,41,34,25,23,9,1,52,37,21,30.55,30.16,3,1,13,0.00
2013-11-25,46,30,17,17,11,7,76,47,21,30.61,30.39,2,0,6,0.00
2013-11-26,65,43,35,65,29,16,98,59,44,30.39,29.56,5,0,14,0.82
2013-11-27,49,41,30,47,37,17,97,86,59,30.13,29.49,6,1,18,0.81
2013-11-28,45,32,22,24,19,14,84,62,37,30.50,30.17,3,0,12,0.00
2013-11-29,53,34,23,29,24,20,94,71,37,30.65,30.49,0,0,8,0.00
2013-11-30,51,35,25,33,27,21,87,73,49,30.67,30.40,1,0,5,0.00
2013-12-1,60,37,27,36,28,24,93,75,37,30.39,30.10,2,0,7,0.00
2013-12-2,62,48,36,42,38,34,91,72,48,29.94,29.82,0,0,4,0.00
2013-12-3,59,44,31,47,39,29,96,82,59,29.98,29.87,0,0,7,0.01
2013-12-4,63,56,52,56,51,46,94,84,78,30.06,29.97,1,0,6,0.00
2013-12-5,67,61,54,64,59,52,97,93,84,30.11,30.01,5,1,17,0.05
2013-12-6,71,68,66,64,63,61,92,84,73,30.01,29.96,6,2,21,0.00
2013-12-7,70,51,43,64,44,34,92,80,69,30.44,29.96,6,1,22,0.23
2013-12-8,42,36,34,34,31,27,95,82,65,30.46,30.31,1,0,9,0.11
2013-12-9,45,40,35,45,38,33,97,96,94,30.29,30.08,1,0,5,0.24
2013-12-10,47,43,30,46,40,27,98,92,76,30.31,29.92,1,0,8,0.48
2013-12-11,51,34,22,30,26,20,95,75,36,30.47,30.29,2,0,10,0.01
2013-12-12,47,35,24,28,22,15,89,62,28,30.43,30.27,1,0,9,0.00
2013-12-13,53,34,21,29,21,17,84,63,27,30.42,30.28,2,0,13,0.00
2013-12-14,46,40,36,42,36,29,96,84,57,30.31,29.79,0,0,12,0.85
2013-12-15,55,43,33,44,36,28,97,80,49,30.06,29.72,3,0,12,0.03
2013-12-16,56,39,29,34,30,26,90,72,43,30.18,30.06,2,0,10,0.00
2013-12-17,63,47,32,38,34,30,91,66,36,30.12,29.86,6,1,21,0.00
2013-12-18,52,39,28,36,24,17,85,60,27,30.29,30.02,2,0,13,0.00
2013-12-19,63,43,27,27,24,21,81,51,24,30.33,30.21,5,1,15,0.00
2013-12-20,67,54,41,52,43,29,90,66,48,30.23,30.10,5,1,17,0.00
2013-12-21,75,61,46,65,54,44,94,80,60,30.13,30.01,6,1,20,0.00
2013-12-22,78,70,64,67,64,60,96,81,61,30.07,29.99,8,3,23,0.27
2013-12-23,66,61,48,66,59,44,99,95,85,30.11,29.96,5,1,15,1.78
2013-12-24,48,42,31,41,30,12,90,65,46,30.44,30.11,3,1,14,0.00
2013-12-25,41,30,22,18,14,11,77,53,31,30.57,30.43,0,0,5,0.00
2013-12-26,53,35,23,30,25,17,87,71,36,30.42,30.24,1,0,10,0.01
2013-12-27,54,35,24,29,24,21,93,69,27,30.48,30.38,1,0,5,0.00
2013-12-28,61,40,24,36,27,20,90,66,29,30.42,30.15,1,0,6,0.00
2013-12-29,60,48,43,59,46,36,99,91,71,30.15,29.68,3,1,17,1.75
2013-12-30,52,44,35,44,39,33,97,85,64,30.12,29.92,1,0,7,0.01
2013-12-31,52,41,34,36,30,22,92,67,33,30.35,30.11,3,0,14,0.00
2014-1-1,51,37,29,30,27,23,87,69,36,30.43,30.17,2,0,7,0.00
2014-1-2,49,42,35,44,37,30,95,84,68,30.15,29.58,1,0,7,0.35